Location: Oberkirch
(48.5323°N, 8.0787°E)
Time: 15:02:07
(UTC+00:00)

Tiros 1 despin weight - Pass Details

Date: 10 February 2026
Orbit: 556 x 593 km, 48.2° (Epoch: 5 March)

Event Time Altitude Azimuth Distance (km) Brightness Sun altitude
Rises 18:27:33 0° 243° (WSW) 2,727 ? -18.1°
Reaches altitude 10° 18:29:49 10° 239° (WSW) 1,834 ? -18.5°
Maximum altitude 18:33:55 58° 161° (SSE) 654 ? -19.1°
Enters shadow 18:34:45 47° 115° (ESE) 739 ? -19.3°
